Oscoda, MI

8:39 AM EST on February 28, 2017 (GMT -0500)
Oscoda-Wurtsmith

Weather History for KOSC - March, 2014

Change the Weather History Date:

Sunday, March 23, 2014

  Actual Average Record
Temperature  
Mean Temperature 16 °F -  
Max Temperature 26 °F 41 °F 56 °F (2012)
Min Temperature 5 °F 24 °F 5 °F (2014)
Degree Days  
Heating Degree Days 50    
Moisture  
Dew Point 2 °F    
Average Humidity 55    
Maximum Humidity 80    
Minimum Humidity 31    
Precipitation  
Precipitation 0.00 in - - ()
Sea Level Pressure  
Sea Level Pressure 30.30 in    
Wind  
Wind Speed 10 mph (NW)    
Max Wind Speed 16 mph    
Max Gust Speed 22 mph    
Visibility 10 miles    
Events      
Averages and records for this station are not official NWS values.
T = Trace of Precipitation, MM = Missing Value Source: NWS Daily Summary

Daily Weather History Graph

Daily Weather History Graph

Search for Another Location

Airport or City:

Trip Planner

Search our weather history database for the weather conditions in past years. The results will help you decide how hot, cold, wet, or windy it might be!

Date:

Astronomy

Mar. 23, 2014 Rise Set
Actual Time 7:31 AM EDT 7:49 PM EDT
Civil Twilight 7:02 AM EDT 8:18 PM EDT
Nautical Twilight 6:27 AM EDT 8:53 PM EDT
Astronomical Twilight 5:52 AM EDT 9:28 PM EDT
Moon 2:16 AM EDT (3/23) 12:00 PM EDT (3/23)
Length of Visible Light 13h 16m
Length of Day
12h 18m
Waning Gibbous, 55% of the Moon is Illuminated
Mar 23
Waning Gibbous
Mar 23
Last Quarter
Mar 30
New
Apr 7
First Quarter
Apr 15
Full

Hourly Weather History & Observations

Time (EDT) Temp. Windchill Dew Point Humidity Pressure Visibility Wind Dir Wind Speed Gust Speed Precip Events Conditions
12:14 AM 13.8 °F -0.5 °F 2.5 °F 61% 30.27 in 10.0 mi NW 12.7 mph 19.6 mph N/A   Clear
12:33 AM 13.1 °F -1.4 °F 2.8 °F 64% 30.27 in 10.0 mi NNW 12.7 mph 19.6 mph N/A   Clear
12:54 AM 12.6 °F -0.6 °F 2.7 °F 65% 30.27 in 10.0 mi NW 10.4 mph 19.6 mph N/A   Clear
1:14 AM 12.0 °F -3.4 °F 2.3 °F 65% 30.28 in 10.0 mi NW 13.8 mph - N/A   Clear
1:33 AM 11.7 °F -5.0 °F 2.1 °F 66% 30.28 in 10.0 mi NNW 16.1 mph 21.9 mph N/A   Clear
1:54 AM 11.1 °F -5.1 °F 2.1 °F 67% 30.29 in 10.0 mi NW 15.0 mph 20.7 mph N/A   Clear
2:14 AM 10.4 °F -4.8 °F 2.1 °F 69% 30.30 in 10.0 mi NW 12.7 mph 18.4 mph N/A   Clear
2:34 AM 10.2 °F -1.7 °F 2.3 °F 70% 30.30 in 10.0 mi NW 8.1 mph 16.1 mph N/A   Clear
2:54 AM 10.0 °F -2.9 °F 2.1 °F 70% 30.30 in 10.0 mi NW 9.2 mph - N/A   Clear
3:14 AM 9.9 °F -3.1 °F 2.3 °F 71% 30.30 in 10.0 mi NW 9.2 mph - N/A   Clear
3:34 AM 9.5 °F -2.6 °F 2.3 °F 73% 30.29 in 10.0 mi NW 8.1 mph - N/A   Clear
3:54 AM 9.1 °F -0.7 °F 2.3 °F 74% 30.29 in 10.0 mi WNW 5.8 mph - N/A   Clear
4:14 AM 9.0 °F -3.2 °F 2.3 °F 74% 30.29 in 10.0 mi WNW 8.1 mph - N/A   Clear
4:34 AM 8.8 °F -4.4 °F 2.3 °F 75% 30.29 in 10.0 mi NW 9.2 mph - N/A   Clear
4:54 AM 8.8 °F -2.4 °F 2.3 °F 75% 30.30 in 10.0 mi NW 6.9 mph - N/A   Clear
5:14 AM 8.6 °F -2.6 °F 2.3 °F 76% 30.30 in 10.0 mi NW 6.9 mph - N/A   Clear
5:34 AM 8.6 °F -2.6 °F 2.3 °F 76% 30.30 in 10.0 mi NW 6.9 mph - N/A   Clear
5:54 AM 8.4 °F -3.9 °F 2.5 °F 77% 30.31 in 10.0 mi WNW 8.1 mph - N/A   Clear
6:14 AM 7.7 °F -2.4 °F 2.1 °F 78% 30.31 in 10.0 mi WNW 5.8 mph - N/A   Clear
6:34 AM 7.3 °F -2.8 °F 1.9 °F 79% 30.31 in 10.0 mi WNW 5.8 mph - N/A   Clear
6:54 AM 7.3 °F -4.1 °F 2.1 °F 79% 30.31 in 10.0 mi WNW 6.9 mph - N/A   Clear
7:14 AM 6.6 °F -5.0 °F 1.4 °F 79% 30.32 in 10.0 mi West 6.9 mph - N/A   Clear
7:34 AM 5.9 °F -5.8 °F 1.0 °F 80% 30.33 in 10.0 mi West 6.9 mph - N/A   Clear
7:54 AM 6.4 °F -5.2 °F 1.4 °F 80% 30.33 in 10.0 mi West 6.9 mph - N/A   Clear
8:14 AM 7.9 °F -5.5 °F 2.1 °F 77% 30.33 in 10.0 mi WNW 9.2 mph - N/A   Clear
8:34 AM 9.5 °F -3.5 °F 2.8 °F 74% 30.33 in 10.0 mi WNW 9.2 mph - N/A   Clear
8:54 AM 10.9 °F -3.4 °F 3.2 °F 71% 30.33 in 10.0 mi WNW 11.5 mph - N/A   Clear
9:13 AM 12.4 °F 0.0 °F 3.7 °F 68% 30.33 in 10.0 mi WNW 9.2 mph - N/A   Clear
9:34 AM 14.2 °F 2.2 °F 4.6 °F 66% 30.33 in 10.0 mi NW 9.2 mph - N/A   Clear
9:54 AM 16.0 °F 3.6 °F 5.0 °F 62% 30.33 in 10.0 mi WNW 10.4 mph - N/A   Clear
10:13 AM 17.4 °F 3.5 °F 5.2 °F 59% 30.33 in 10.0 mi NW 13.8 mph - N/A   Clear
10:34 AM 18.3 °F 5.2 °F 4.1 °F 54% 30.33 in 10.0 mi NNW 12.7 mph 16.1 mph N/A   Scattered Clouds
10:54 AM 18.5 °F 8.4 °F 2.7 °F 50% 30.33 in 10.0 mi WNW 8.1 mph - N/A   Clear
11:13 AM 19.8 °F 8.3 °F 2.1 °F 46% 30.33 in 10.0 mi NNW 10.4 mph - N/A   Clear
11:34 AM 19.8 °F 5.4 °F 0.3 °F 43% 30.33 in 10.0 mi NNW 16.1 mph 20.7 mph N/A   Scattered Clouds
11:54 AM 20.7 °F 7.1 °F 1.8 °F 44% 30.33 in 10.0 mi North 15.0 mph - N/A   Clear
12:13 PM 21.2 °F 10.1 °F 2.1 °F 44% 30.33 in 10.0 mi North 10.4 mph 17.3 mph N/A   Scattered Clouds
12:34 PM 21.7 °F 9.6 °F 1.6 °F 42% 30.32 in 10.0 mi North 12.7 mph 16.1 mph N/A   Scattered Clouds
12:54 PM 22.5 °F 9.9 °F 1.6 °F 40% 30.32 in 10.0 mi WNW 13.8 mph 18.4 mph N/A   Mostly Cloudy
1:13 PM 22.6 °F 10.1 °F 1.4 °F 40% 30.31 in 10.0 mi NW 13.8 mph 19.6 mph N/A   Mostly Cloudy
1:34 PM 24.1 °F 16.0 °F 1.6 °F 38% 30.31 in 10.0 mi NNW 6.9 mph - N/A   Mostly Cloudy
1:54 PM 23.9 °F 12.3 °F 2.3 °F 39% 30.31 in 10.0 mi West 12.7 mph 18.4 mph N/A   Overcast
2:13 PM 24.4 °F 14.9 °F 1.9 °F 38% 30.29 in 10.0 mi WSW 9.2 mph - N/A   Overcast
2:34 PM 23.7 °F 16.6 °F 1.4 °F 38% 30.29 in 10.0 mi WNW 5.8 mph 16.1 mph N/A   Overcast
2:54 PM 23.9 °F 15.0 °F 0.9 °F 37% 30.28 in 10.0 mi NNW 8.1 mph 17.3 mph N/A   Overcast
3:13 PM 24.4 °F 14.9 °F 1.0 °F 36% 30.28 in 10.0 mi NNW 9.2 mph - N/A   Overcast
3:34 PM 26.1 °F 17.6 °F 2.1 °F 36% 30.28 in 10.0 mi NNW 8.1 mph 19.6 mph N/A   Overcast
3:54 PM 24.3 °F 14.6 °F -0.2 °F 35% 30.27 in 10.0 mi NNW 9.2 mph - N/A   Mostly Cloudy
4:13 PM 24.1 °F 16.0 °F -0.6 °F 34% 30.27 in 10.0 mi NW 6.9 mph - N/A   Overcast
4:34 PM 26.6 °F 16.2 °F -0.2 °F 31% 30.26 in 10.0 mi WNW 11.5 mph 18.4 mph N/A   Overcast
4:54 PM 26.6 °F 15.2 °F 0.9 °F 33% 30.26 in 10.0 mi West 13.8 mph - N/A   Overcast
5:14 PM 24.3 °F 13.9 °F -1.1 °F 33% 30.26 in 10.0 mi NW 10.4 mph - N/A   Mostly Cloudy
5:34 PM 24.6 °F 15.8 °F -0.4 °F 34% 30.27 in 10.0 mi NNW 8.1 mph - N/A   Mostly Cloudy
5:54 PM 25.5 °F 12.9 °F 0.3 °F 34% 30.27 in 10.0 mi WNW 16.1 mph 20.7 mph N/A   Overcast
6:14 PM 23.7 °F 12.6 °F -0.2 °F 35% 30.27 in 10.0 mi WNW 11.5 mph - N/A   Mostly Cloudy
6:34 PM 24.8 °F 16.1 °F 0.3 °F 35% 30.27 in 10.0 mi NNW 8.1 mph - N/A   Mostly Cloudy
6:53 PM 24.4 °F 14.9 °F -0.0 °F 35% 30.28 in 10.0 mi WNW 9.2 mph 19.6 mph N/A   Overcast
7:14 PM 23.9 °F 14.2 °F 0.5 °F 36% 30.28 in 10.0 mi NNW 9.2 mph - N/A   Overcast
7:34 PM 23.0 °F 13.9 °F 0.5 °F 38% 30.28 in 10.0 mi NNW 8.1 mph - N/A   Overcast
7:53 PM 21.9 °F 12.5 °F 0.7 °F 40% 30.29 in 10.0 mi West 8.1 mph - N/A   Mostly Cloudy
8:14 PM 20.8 °F 12.1 °F 1.6 °F 43% 30.29 in 10.0 mi NW 6.9 mph - N/A   Mostly Cloudy
8:34 PM 19.8 °F 9.1 °F 2.3 °F 47% 30.30 in 10.0 mi NW 9.2 mph - N/A   Mostly Cloudy
8:53 PM 19.2 °F 10.2 °F 2.1 °F 47% 30.31 in 10.0 mi WNW 6.9 mph - N/A   Overcast
9:14 PM 18.1 °F 7.9 °F 1.8 °F 49% 30.31 in 10.0 mi WNW 8.1 mph - N/A   Scattered Clouds
9:34 PM 17.1 °F 8.7 °F 1.6 °F 51% 30.31 in 10.0 mi NW 5.8 mph - N/A   Clear
9:53 PM 15.8 °F 7.2 °F 1.0 °F 52% 30.32 in 10.0 mi WNW 5.8 mph - N/A   Clear
10:14 PM 14.7 °F 5.9 °F 0.5 °F 53% 30.32 in 10.0 mi WNW 5.8 mph - N/A   Clear
10:34 PM 14.9 °F 7.5 °F 0.3 °F 53% 30.32 in 10.0 mi NW 4.6 mph - N/A   Clear
10:53 PM 14.0 °F 6.5 °F -0.0 °F 54% 30.33 in 10.0 mi WNW 4.6 mph - N/A   Clear
11:14 PM 12.2 °F 6.1 °F 0.3 °F 59% 30.32 in 10.0 mi WNW 3.5 mph - N/A   Clear
11:34 PM 11.8 °F 3.9 °F -0.4 °F 58% 30.32 in 10.0 mi WNW 4.6 mph - N/A   Clear
11:53 PM 11.5 °F 3.5 °F -0.4 °F 59% 30.32 in 10.0 mi WNW 4.6 mph - N/A   Clear